Regional Weather Roundup
Issued by NWS

Home | Current Version | Previous Version | Graphics & Text | Print | Product List | Glossary On
Versions: 1 2 3 4 5 6 7 8 9 10 11 12 13 14 15 16 17 18 19 20 21 22 23 24 25 26 27 28 29 30 31 32 33 34 35 36 37 38 39 40 41 42 43 44 45 46 47 48 49 50
730
ASUS43 KIND 191609
RWRIN

WEATHER ROUNDUP FOR INDIANA
NATIONAL WEATHER SERVICE INDIANAPOLIS IN
1100 AM EST SUN FEB 19 2017

NOTE: "FAIR" INDICATES FEW OR NO CLOUDS BELOW 12,000 FEET WITH NO
SIGNIFICANT WEATHER AND/OR OBSTRUCTIONS TO VISIBILITY.

* - STATION DOES NOT REPORT WEATHER SUCH AS PRECIPITATION OR FOG.

+ - STATION NOT QUALITY CONTROLLED BY THE NATIONAL WEATHER SERVICE.
    USE DATA WITH CAUTION...ESPECIALLY DEWPOINT AND RELATIVE
    HUMIDITY OBSERVATIONS.

INZ001>003-010>013-019-020-191700-
NORTHWEST INDIANA

CITY           SKY/WX    TMP DP  RH WIND       PRES   REMARKS
GARY /AIRPORT/ SUNNY     57  30  35 CALM      30.07R
KNOX *+        SUNNY     45  27  49 S5        30.07R
LA PORTE +     SUNNY     56  33  42 CALM      30.07R
MICHIGAN CITY+ SUNNY     54  36  50 CALM      30.07R
MONTICELLO +   CLOUDY    46  44  95 S6        30.07S FOG
RENSSELAER +     N/A     43  43 100 SW6       30.09R FOG
VALPARAISO     SUNNY     57  39  51 CALM      30.07R

$$

LMZ046-743>745-191700-
SOUTHERN LAKE MICHIGAN

STATION/POSITION TIME  TEMP    WIND        PRES    WAVE
                       AIR SEA DIR/SP/G            HT
                 (UTC) (F)     (DEG/KT/KT) (MB)    (FT)
BURNS HARBOR     1540   49     300/  2/  3 1018.6R
MICHIGAN CITY    1540   46     230/  3/  3   N/A

$$

INZ004-005-014>016-021>024-191700-
NORTH CENTRAL INDIANA

CITY           SKY/WX    TMP DP  RH WIND       PRES   REMARKS
ELKHART        SUNNY     54  36  50 CALM      30.05R
GOSHEN         SUNNY     53  38  56 SW6       30.05S
LOGANSPORT +   CLOUDY    45  43  93 CALM      30.09R FOG
PERU/GRISSOM   CLOUDY    49  49 100 CALM      30.07R
ROCHESTER +    FOG       45 N/A N/A S5        30.08R VSB 1/2
SOUTH BEND     SUNNY     54  35  48 CALM      30.07R
WARSAW +       MOSUNNY   43  43 100 S5        30.07R

$$

INZ006>009-017-018-025>027-191700-
NORTHEAST INDIANA

CITY           SKY/WX    TMP DP  RH WIND       PRES   REMARKS
ANGOLA *+      SUNNY     54  43  66 W6        30.03S
AUBURN +       SUNNY     50  41  71 W7        30.06R
FORT WAYNE     CLOUDY    46  43  89 W8        30.08R FOG
HUNTINGTON +   CLOUDY    47  45  95 W7        30.08R FOG
KENDALLVILLE + SUNNY     52  38  59 W7        30.05R

$$

INZ028-029-035-036-043>045-051>053-191700-
WEST CENTRAL INDIANA

CITY           SKY/WX    TMP DP  RH WIND       PRES   REMARKS
GREENCASTLE +  CLOUDY    50  46  87 CALM      30.10R FOG
LAFAYETTE      CLOUDY    50  46  86 VRB5      30.08R FOG
TERRE HAUTE    CLOUDY    53  47  79 SW5       30.10R

$$

INZ030>032-037>040-046>048-054>057-064-065-191700-
CENTRAL INDIANA

CITY           SKY/WX    TMP DP  RH WIND       PRES   REMARKS
CP ATTERBURY + CLOUDY    48  45  87 CALM      30.12R
COLUMBUS       CLOUDY    46  46 100 CALM      30.12R FOG
FRANKFORT +    CLOUDY    51  47  85 SW6       30.10R FOG
GREENWOOD *+   CLOUDY    51  47  89 CALM      30.10S
INDIANAPOLIS   CLOUDY    50  46  86 S3        30.09R
-EAGLE CREEK   CLOUDY    51  45  79 VRB3      30.09R
KOKOMO +       MOSUNNY   49  45  86 SW5       30.08S FOG
MARION +       CLOUDY    47  44  88 SW6       30.09R FOG
MT COMFORT *+  PTSUNNY   52  45  76 SW7       30.09S
SHELBYVILLE    CLOUDY    51  45  79 SW9       30.10R HAZE
ZIONSVILLE +   CLOUDY    49  45  87 W6        30.09S FOG

$$

INZ033-034-041-042-049-050-058-059-191700-
EAST CENTRAL INDIANA

CITY           SKY/WX    TMP DP  RH WIND       PRES   REMARKS
MUNCIE         CLOUDY    51  45  79 W7        30.08R

$$

INZ060-061-067>069-081>083-085>088-191700-
SOUTHWEST INDIANA

CITY           SKY/WX    TMP DP  RH WIND       PRES   REMARKS
EVANSVILLE     CLOUDY    53  48  83 CALM      30.12S
HUNTINGBURG *+ CLOUDY    50  48  93 CALM      30.12S
WASHINGTON +   CLOUDY    50  47  91 CALM      30.11S

$$

INZ062-063-066-070>080-084-089>092-191700-
SOUTH CENTRAL AND SOUTHEAST INDIANA

CITY           SKY/WX    TMP DP  RH WIND       PRES   REMARKS
BEDFORD +      CLOUDY    48  46  93 CALM      30.11R FOG
BLOOMINGTON    CLOUDY    49  46  90 SW5       30.10S FOG
MADISON *+     CLOUDY    50  46  87 SW3       30.13R
NORTH VERNON + CLOUDY   N/A N/A N/A W3        30.11R HAZE
SEYMOUR +      CLOUDY    52  48  87 W5        30.11R

$$





USA.gov is the U.S. government's official web portal to all federal, state and local government web resources and services.